{"data":{"norad_id":64027,"intl_designator":"2025-102F","name":"STARLINK-33967","alt_names":[],"object_type":"PAYLOAD","status":"ACTIVE","operator":null,"country":"US","launch_date":"2025-05-16","launch_site_code":"AFWTR","launch_vehicle":null,"mission":null,"orbit_class":"UNKNOWN","rcs_meters":null,"size_class":null,"mass_kg":null,"dimensions":null,"purposes":["comms"],"wikipedia_slug":null,"has_3d_model":false,"image_url":null,"decayed_at":null,"tle_current":{"epoch":"2026-05-24T19:20:14.275392Z","epoch_age_seconds":92139,"freshness":"FRESH","line1":"1 64027U 25102F   26144.80572078  .00002902  00000+0  25087-3 0  9990","line2":"2 64027  70.0003 282.5353 0002527 272.0464  88.0405 14.98337541 57293","mean_motion":14.98337541,"eccentricity":0.0002527,"inclination_deg":70.0003,"raan_deg":282.5353,"arg_perigee_deg":272.0464,"mean_anomaly_deg":88.0405,"bstar":0.00025087,"rev_number":5729,"period_min":96.106515427688,"perigee_km":570.27626327116,"apogee_km":573.7888789724,"semimajor_km":6950.1695711218,"source":"CELESTRAK","updated_at":"2026-05-25T13:38:20.225128Z"}}}